SV2GWY Weather Reports


time (UTC)temp
F
wind
direction
speed
knots
gust
knots
rain 1hr
in
rain 24hr
in
rain mn
in
humidity
%
barometer
mb
20260507183047 61 198 0.0 2.6 0.00 0.00 0.00 79 1017.9
20260507182952 61 240 0.9 1.7 0.00 0.00 0.00 78 1018.2
20260507182443 61 148 0.9 1.7 0.00 0.00 0.00 78 1018.1
20260507181943 62 230 0.0 0.9 0.00 0.00 0.00 78 1018.1
20260507181542 62 159 0.0 0.9 0.00 0.00 0.00 77 1018.0
20260507181452 62 158 0.0 0.9 0.00 0.00 0.00 77 1018.0
20260507180944 62 164 0.0 1.7 0.00 0.00 0.00 76 1018.0
20260507180455 63 255 0.9 1.7 0.00 0.00 0.00 75 1017.9
20260507180049 63 258 0.0 1.7 0.00 0.00 0.00 75 1017.7
20260507180004 63 258 0.9 1.7 0.00 0.00 0.00 75 1017.8
20260507175442 63 257 0.0 1.7 0.00 0.00 0.00 74 1017.7
20260507174955 63 246 0.0 1.7 0.00 0.00 0.00 74 1017.8
20260507174543 64 246 0.0 1.7 0.00 0.00 0.00 74 1017.6
20260507174453 64 245 0.0 1.7 0.00 0.00 0.00 75 1017.7
20260507173944 64 158 0.0 0.0 0.00 0.00 0.00 74 1017.6
20260507173444 64 142 0.0 0.0 0.00 0.00 0.00 73 1017.6
20260507173046 65 192 0.0 0.0 0.00 0.00 0.00 73 1017.4
20260507172951 65 192 0.0 0.0 0.00 0.00 0.00 73 1017.6
20260507172443 65 193 0.0 0.9 0.00 0.00 0.00 72 1017.7
20260507171942 65 126 0.0 2.6 0.00 0.00 0.00 70 1017.5
20260507171544 65 55 0.0 2.6 0.00 0.00 0.00 71 1017.2
20260507171451 65 56 0.0 2.6 0.00 0.00 0.00 71 1017.4
20260507170955 65 53 0.0 1.7 0.00 0.00 0.00 73 1017.2
20260507170444 65 117 0.0 0.0 0.00 0.00 0.00 73 1017.6
20260507170043 66 191 0.0 0.0 0.00 0.00 0.00 72 1017.8
20260507165953 66 205 0.0 0.0 0.00 0.00 0.00 73 1017.9
20260507165444 66 205 0.0 0.0 0.00 0.00 0.00 74 1018.0
20260507164944 66 205 0.0 0.0 0.00 0.00 0.00 74 1018.1
20260507164543 67 205 0.0 0.0 0.00 0.00 0.00 72 1018.0
20260507164453 67 205 0.0 0.0 0.00 0.00 0.00 73 1018.1
20260507163954 67 206 0.0 0.0 0.00 0.00 0.00 71 1018.1
20260507163443 67 206 0.0 0.0 0.00 0.00 0.00 70 1018.1
20260507163044 67 150 0.0 0.0 0.00 0.00 0.00 69 1017.9
20260507162952 67 150 0.0 0.0 0.00 0.00 0.00 69 1018.0
20260507162443 67 150 0.0 0.0 0.00 0.00 0.00 69 1017.9
20260507161943 67 150 0.0 0.0 0.00 0.00 0.00 68 1017.9
20260507161543 68 193 0.0 0.0 0.00 0.00 0.00 68 1017.8
20260507161503 68 193 0.0 0.0 0.00 0.00 0.00 68 1018.0
20260507160943 67 193 0.0 0.0 0.00 0.00 0.00 68 1018.0
20260507160455 67 193 0.0 0.0 0.00 0.00 0.00 67 1017.9
20260507160044 67 193 0.0 0.0 0.00 0.00 0.00 68 1017.9
20260507160003 67 194 0.0 0.0 0.00 0.00 0.00 67 1018.0
20260507155443 67 193 0.0 0.0 0.00 0.00 0.00 69 1018.2
20260507154943 67 179 0.0 0.0 0.00 0.00 0.00 70 1018.1
20260507154543 67 159 0.0 0.0 0.00 0.00 0.00 69 1017.8
20260507154453 67 163 0.0 0.0 0.00 0.00 0.00 70 1018.0
20260507153954 67 221 0.0 0.0 0.00 0.00 0.00 68 1017.9
20260507153443 67 235 0.0 0.9 0.00 0.00 0.00 66 1018.2
20260507153050 67 238 0.0 0.9 0.00 0.00 0.00 66 1018.2
20260507152952 67 237 0.0 0.9 0.00 0.00 0.00 66 1018.3
20260507152443 67 240 0.0 1.7 0.00 0.00 0.00 67 1018.3
20260507151943 67 252 0.9 1.7 0.00 0.00 0.00 65 1018.2
20260507151543 67 257 0.0 2.6 0.00 0.00 0.00 65 1018.1
20260507151452 67 257 0.9 2.6 0.00 0.00 0.00 65 1018.3
20260507150943 67 266 0.9 2.6 0.00 0.00 0.00 66 1018.3
20260507150445 67 272 0.9 2.6 0.00 0.00 0.00 66 1018.2
20260507150044 67 266 0.0 2.6 0.00 0.00 0.00 67 1018.1
20260507145953 67 300 0.0 2.6 0.00 0.00 0.00 67 1018.1
20260507145443 67 259 0.9 4.3 0.00 0.00 0.00 67 1018.2
20260507144955 67 314 0.9 4.3 0.00 0.00 0.00 68 1018.2
20260507144548 68 292 0.9 4.3 0.00 0.00 0.00 67 1018.1
20260507144453 68 288 0.9 4.3 0.00 0.00 0.00 68 1018.2
20260507143944 68 278 1.7 5.2 0.00 0.00 0.00 67 1018.3
20260507143445 68 317 2.6 5.2 0.00 0.00 0.00 66 1018.1
20260507143043 68 291 1.7 7.0 0.00 0.00 0.00 66 1018.0
20260507142954 68 287 2.6 7.0 0.00 0.00 0.00 66 1018.1
20260507142444 68 292 3.5 7.0 0.00 0.00 0.00 64 1018.2
20260507141944 69 330 2.6 6.1 0.00 0.00 0.00 66 1018.2
20260507141547 69 307 1.7 5.2 0.00 0.00 0.00 67 1018.0
20260507141454 69 290 2.6 5.2 0.00 0.00 0.00 67 1018.0
20260507140943 70 288 2.6 6.1 0.00 0.00 0.00 67 1018.0
20260507140455 70 285 2.6 5.2 0.00 0.00 0.00 67 1018.0
20260507140104 71 285 0.9 7.0 0.00 0.00 0.00 65 1017.8
20260507135953 71 307 1.7 7.0 0.00 0.00 0.00 65 1018.0
20260507135444 71 338 2.6 7.0 0.00 0.00 0.00 63 1017.8
20260507134944 72 314 0.9 3.5 0.00 0.00 0.00 63 1018.0
20260507134544 71 34 0.9 3.5 0.00 0.00 0.00 64 1017.7
20260507134453 71 340 1.7 3.5 0.00 0.00 0.00 64 1017.8
20260507133944 71 341 0.9 2.6 0.00 0.00 0.00 63 1017.8
20260507133444 71 308 0.9 2.6 0.00 0.00 0.00 62 1017.8
20260507133047 70 25 0.0 1.7 0.00 0.00 0.00 64 1017.7
20260507132953 70 17 0.0 1.7 0.00 0.00 0.00 64 1017.9
20260507132444 69 62 0.0 1.7 0.00 0.00 0.00 65 1017.7
20260507131944 69 65 0.0 1.7 0.00 0.00 0.00 65 1017.9
20260507131547 69 66 0.0 1.7 0.00 0.00 0.00 65 1017.9
20260507131504 69 48 0.0 1.7 0.00 0.00 0.00 65 1018.0
20260507130944 69 103 0.0 0.9 0.00 0.00 0.00 66 1018.2
20260507130455 69 136 0.0 1.7 0.00 0.00 0.00 66 1018.3
20260507130051 69 317 0.0 1.7 0.00 0.00 0.00 67 1018.2
20260507125953 68 11 0.9 1.7 0.00 0.00 0.00 67 1018.3
20260507125444 68 6 0.9 4.3 0.00 0.00 0.00 68 1018.2
20260507124944 68 50 0.9 4.3 0.00 0.00 0.00 69 1018.0
20260507124552 68 122 0.9 3.5 0.00 0.00 0.00 67 1017.7
20260507124453 68 62 0.9 3.5 0.00 0.00 0.00 67 1017.9
20260507123944 68 10 1.7 3.5 0.00 0.00 0.00 67 1018.2
20260507123444 68 326 1.7 3.5 0.00 0.00 0.00 66 1018.6
20260507123055 68 359 0.9 3.5 0.00 0.00 0.00 67 1018.7
20260507122953 68 350 1.7 3.5 0.00 0.00 0.00 67 1018.7
20260507122444 68 46 0.9 3.5 0.00 0.00 0.00 68 1018.9
20260507121944 68 340 0.9 2.6 0.00 0.00 0.00 68 1019.1
20260507121548 67 286 0.0 1.7 0.00 0.00 0.00 71 1019.2
20260507121455 67 332 0.0 0.9 0.00 0.00 0.00 70 1019.3
20260507120944 67 11 0.0 0.0 0.00 0.00 0.00 73 1019.5
20260507120444 66 11 0.0 0.9 0.00 0.00 0.00 71 1019.5
20260507120054 66 42 0.0 1.7 0.00 0.00 0.00 73 1019.4
20260507115953 66 42 0.0 1.7 0.00 0.00 0.00 73 1019.6
20260507115444 65 285 0.9 1.7 0.00 0.00 0.00 73 1019.7
20260507114945 66 330 0.0 1.7 0.00 0.00 0.00 76 1019.7
20260507114547 65 322 0.0 2.6 0.00 0.00 0.00 75 1019.5
20260507114454 65 359 0.9 2.6 0.00 0.00 0.00 75 1019.7
20260507113944 66 339 0.9 2.6 0.00 0.00 0.00 76 1019.7
20260507113444 66 34 0.9 2.6 0.00 0.00 0.00 75 1019.9
20260507113044 66 340 0.0 2.6 0.00 0.00 0.00 75 1019.8
20260507112954 66 311 0.0 2.6 0.00 0.00 0.00 75 1019.9
20260507112445 66 25 0.0 1.7 0.00 0.00 0.00 74 1020.0
20260507111955 66 307 0.9 2.6 0.00 0.00 0.00 72 1020.0
20260507111547 66 313 0.9 2.6 0.00 0.00 0.00 71 1020.0
20260507111453 66 283 0.9 2.6 0.00 0.00 0.00 71 1020.1
20260507110944 66 310 0.9 2.6 0.00 0.00 0.00 71 1020.1
20260507110446 66 319 0.9 2.6 0.00 0.00 0.00 70 1020.1
20260507110045 66 293 0.0 1.7 0.00 0.00 0.00 69 1019.9
20260507105954 66 303 0.9 2.6 0.00 0.00 0.00 69 1020.0
20260507105444 66 354 0.0 2.6 0.00 0.00 0.00 68 1020.0
20260507104944 67 330 0.9 2.6 0.00 0.00 0.00 67 1019.9
20260507104545 67 307 0.0 2.6 0.00 0.00 0.00 67 1019.8
20260507104454 67 307 0.0 4.3 0.00 0.00 0.00 66 1020.0
20260507103945 67 356 0.9 4.3 0.00 0.00 0.00 64 1020.0
20260507103445 67 285 1.7 3.5 0.00 0.00 0.00 62 1020.0
20260507103044 67 3 0.9 2.6 0.00 0.00 0.00 62 1019.7
20260507103005 67 288 0.9 3.5 0.00 0.00 0.00 61 1019.9
20260507102445 67 238 0.9 4.3 0.00 0.00 0.00 62 1020.0
20260507101956 67 227 1.7 4.3 0.00 0.00 0.00 62 1020.0
20260507101548 67 319 1.7 5.2 0.00 0.00 0.00 62 1019.8
20260507101454 67 302 1.7 5.2 0.00 0.00 0.00 62 1019.9
20260507100945 67 300 1.7 5.2 0.00 0.00 0.00 64 1020.0
20260507100446 68 338 2.6 4.3 0.00 0.00 0.00 63 1020.1
20260507100045 68 231 1.7 4.3 0.00 0.00 0.00 63 1019.8
20260507095955 68 295 2.6 4.3 0.00 0.00 0.00 63 1020.0
20260507095445 68 315 1.7 4.3 0.00 0.00 0.00 61 1019.9
20260507094946 68 307 2.6 4.3 0.00 0.00 0.00 60 1019.8
20260507094547 68 285 0.9 6.1 0.00 0.00 0.00 60 1019.5
20260507094455 68 251 0.9 6.1 0.00 0.00 0.00 60 1019.7
20260507093945 68 285 1.7 5.2 0.00 0.00 0.00 62 1019.6
20260507093446 68 299 2.6 5.2 0.00 0.00 0.00 60 1019.5
20260507093045 68 293 0.9 5.2 0.00 0.00 0.00 63 1019.2
20260507092955 68 304 0.9 5.2 0.00 0.00 0.00 62 1019.4
20260507092457 68 293 2.6 5.2 0.00 0.00 0.00 61 1019.3
20260507091946 68 279 3.5 5.2 0.00 0.00 0.00 61 1019.1
20260507091547 68 316 2.6 5.2 0.00 0.00 0.00 61 1018.9
20260507091454 68 15 3.5 5.2 0.00 0.00 0.00 62 1018.9
20260507090945 68 330 2.6 7.0 0.00 0.00 0.00 62 1018.9
20260507090445 68 321 2.6 7.0 0.00 0.00 0.00 60 1018.8
20260507090045 68 347 2.6 5.2 0.00 0.00 0.00 59 1018.6
20260507085954 68 307 3.5 5.2 0.00 0.00 0.00 59 1018.8
20260507085446 69 347 1.7 4.3 0.00 0.00 0.00 59 1018.7
20260507084945 69 328 1.7 4.3 0.00 0.00 0.00 57 1018.6
20260507084551 69 298 0.9 7.0 0.00 0.00 0.00 57 1018.4
20260507084455 69 302 1.7 7.0 0.00 0.00 0.00 59 1018.7
20260507083946 69 14 2.6 5.2 0.00 0.00 0.00 57 1018.6
20260507083445 69 319 1.7 5.2 0.00 0.00 0.00 58 1018.5
20260507083050 69 3 1.7 4.3 0.00 0.00 0.00 59 1018.4
20260507083005 69 314 2.6 4.3 0.00 0.00 0.00 59 1018.5
20260507082458 69 37 0.0 3.5 0.00 0.00 0.00 59 1018.5
20260507081946 69 316 0.9 3.5 0.00 0.00 0.00 59 1018.4
20260507081545 70 293 1.7 3.5 0.00 0.00 0.00 58 1018.3
20260507081455 70 317 2.6 3.5 0.00 0.00 0.00 58 1018.4
20260507080946 70 297 0.9 3.5 0.00 0.00 0.00 60 1018.4
20260507080446 69 282 1.7 3.5 0.00 0.00 0.00 58 1018.4
20260507080111 69 268 0.9 3.5 0.00 0.00 0.00 60 1018.2
20260507075956 69 255 0.9 3.5 0.00 0.00 0.00 60 1018.4
20260507075456 69 282 1.7 3.5 0.00 0.00 0.00 58 1018.3
20260507074945 68 292 1.7 5.2 0.00 0.00 0.00 60 1018.2
20260507074547 68 255 0.9 5.2 0.00 0.00 0.00 60 1018.0
20260507074455 68 20 1.7 5.2 0.00 0.00 0.00 60 1018.1
20260507073946 68 317 1.7 3.5 0.00 0.00 0.00 60 1018.1
20260507073446 68 268 1.7 4.3 0.00 0.00 0.00 60 1018.0
20260507073053 69 315 1.7 4.3 0.00 0.00 0.00 60 1017.8
20260507072956 69 302 1.7 4.3 0.00 0.00 0.00 59 1018.0
20260507072446 69 257 0.9 3.5 0.00 0.00 0.00 61 1017.9
20260507071957 68 285 0.9 3.5 0.00 0.00 0.00 61 1017.9
20260507071559 68 297 0.9 3.5 0.00 0.00 0.00 62 1017.6
20260507071506 67 23 0.9 3.5 0.00 0.00 0.00 62 1017.8
20260507070946 67 316 0.9 4.3 0.00 0.00 0.00 64 1017.9
20260507070446 67 73 1.7 4.3 0.00 0.00 0.00 66 1017.9
20260507070046 67 304 0.9 4.3 0.00 0.00 0.00 67 1017.8
20260507065955 67 304 1.7 4.3 0.00 0.00 0.00 67 1018.0
20260507065446 67 306 2.6 4.3 0.00 0.00 0.00 67 1018.0
20260507064946 67 319 0.9 3.5 0.00 0.00 0.00 65 1018.0
20260507064551 68 286 0.9 3.5 0.00 0.00 0.00 63 1017.9
20260507064506 68 285 1.7 3.5 0.00 0.00 0.00 63 1018.0
20260507063946 68 356 0.9 2.6 0.00 0.00 0.00 64 1018.1
20260507063446 68 304 1.7 4.3 0.00 0.00 0.00 64 1018.1
20260507063048 68 328 0.9 4.3 0.00 0.00 0.00 63 1017.9
20260507062955 68 329 1.7 4.3 0.00 0.00 0.00 63 1018.1
20260507062446 68 240 0.9 2.6 0.00 0.00 0.00 61 1018.0
20260507061946 68 239 0.9 2.6 0.00 0.00 0.00 62 1018.0
20260507061546 68 262 0.9 2.6 0.00 0.00 0.00 62 1017.7
20260507061506 68 286 1.7 2.6 0.00 0.00 0.00 61 1017.9
20260507060946 69 60 0.0 1.7 0.00 0.00 0.00 64 1017.8
20260507060446 69 51 0.0 1.7 0.00 0.00 0.00 64 1017.8
20260507060046 68 44 0.0 1.7 0.00 0.00 0.00 65 1017.6
20260507055956 68 47 0.0 1.7 0.00 0.00 0.00 65 1017.7
20260507055446 68 72 0.9 1.7 0.00 0.00 0.00 66 1017.6
20260507054948 69 121 0.0 1.7 0.00 0.00 0.00 67 1017.7
20260507054552 69 137 0.0 1.7 0.00 0.00 0.00 67 1017.5
20260507054506 69 137 0.0 1.7 0.00 0.00 0.00 67 1017.7
20260507053946 68 60 0.0 0.9 0.00 0.00 0.00 67 1017.7
20260507053446 67 60 0.0 0.9 0.00 0.00 0.00 70 1017.7
20260507053048 66 59 0.0 0.9 0.00 0.00 0.00 77 1017.6
20260507052957 65 59 0.0 0.9 0.00 0.00 0.00 77 1017.7
20260507052446 64 59 0.0 1.7 0.00 0.00 0.00 79 1017.6
20260507051958 65 58 0.9 1.7 0.00 0.00 0.00 77 1017.5
20260507051547 65 88 0.0 0.9 0.00 0.00 0.00 76 1017.3
20260507051456 65 158 0.0 0.9 0.00 0.00 0.00 77 1017.4
20260507050946 64 162 0.0 1.7 0.00 0.00 0.00 79 1017.4
20260507050458 63 167 0.9 1.7 0.00 0.00 0.00 80 1017.5
20260507050046 62 158 0.0 1.7 0.00 0.00 0.00 82 1017.3
20260507045955 62 166 0.9 1.7 0.00 0.00 0.00 82 1017.5
20260507045446 61 149 0.0 0.9 0.00 0.00 0.00 84 1017.5
20260507044947 60 184 0.0 1.7 0.00 0.00 0.00 86 1017.5
20260507044546 59 162 0.0 1.7 0.00 0.00 0.00 86 1017.4
20260507044456 59 155 0.0 1.7 0.00 0.00 0.00 87 1017.5
20260507043949 58 177 0.9 1.7 0.00 0.00 0.00 87 1017.5
20260507043457 57 140 0.9 1.7 0.00 0.00 0.00 89 1017.4
20260507043047 57 155 0.0 0.9 0.00 0.00 0.00 91 1017.2
20260507042956 56 163 0.0 0.9 0.00 0.00 0.00 91 1017.5
20260507042446 55 164 0.0 0.0 0.00 0.00 0.00 91 1017.4
20260507041948 54 149 0.0 0.9 0.00 0.00 0.00 92 1017.5
20260507041549 54 167 0.0 0.9 0.00 0.00 0.00 91 1017.3
20260507041457 54 205 0.0 0.9 0.00 0.00 0.00 91 1017.3
20260507040958 53 139 0.0 1.7 0.00 0.00 0.00 91 1017.3
20260507040448 53 139 0.0 1.7 0.00 0.00 0.00 91 1017.3
20260507040058 53 200 0.0 0.0 0.00 0.00 0.00 91 1017.0
20260507040007 53 207 0.0 0.0 0.00 0.00 0.00 91 1017.2
20260507035459 53 207 0.0 0.0 0.00 0.00 0.00 92 1017.0
20260507034947 53 207 0.0 0.0 0.00 0.00 0.00 91 1017.0
20260507034555 53 207 0.0 0.0 0.00 0.00 0.00 91 1016.8
20260507034456 53 207 0.0 0.9 0.00 0.00 0.00 91 1017.0
20260507033947 53 207 0.0 0.9 0.00 0.00 0.00 91 1016.9
20260507033447 53 212 0.0 0.9 0.00 0.00 0.00 91 1016.9
20260507033047 53 131 0.0 0.0 0.00 0.00 0.00 91 1016.8
20260507033007 53 131 0.0 0.0 0.00 0.00 0.00 91 1016.8
20260507032447 53 131 0.0 0.9 0.00 0.00 0.00 92 1016.8
20260507031947 53 237 0.0 0.9 0.00 0.00 0.00 91 1016.8
20260507031547 53 237 0.0 0.9 0.00 0.00 0.00 91 1016.7
20260507031456 53 238 0.0 0.9 0.00 0.00 0.00 91 1016.8
20260507030947 53 244 0.0 0.9 0.00 0.00 0.00 91 1016.8
20260507030447 53 227 0.0 0.9 0.00 0.00 0.00 91 1016.8
20260507030053 53 190 0.0 0.9 0.00 0.00 0.00 91 1016.6
20260507025956 53 158 0.0 0.9 0.00 0.00 0.00 91 1016.7
20260507025447 53 223 0.0 0.9 0.00 0.00 0.00 92 1016.7
20260507024958 53 226 0.0 1.7 0.00 0.00 0.00 91 1016.7
20260507024547 53 167 0.0 1.7 0.00 0.00 0.00 91 1016.5
20260507024457 53 164 0.9 1.7 0.00 0.00 0.00 91 1016.7
20260507023947 53 172 0.0 0.9 0.00 0.00 0.00 91 1016.7
20260507023458 53 162 0.0 0.9 0.00 0.00 0.00 91 1016.7
20260507023047 53 161 0.0 0.9 0.00 0.00 0.00 91 1016.5
20260507022956 53 161 0.0 0.9 0.00 0.00 0.00 91 1016.6
20260507022447 53 233 0.0 0.9 0.00 0.00 0.00 91 1016.6
20260507021947 53 231 0.0 0.9 0.00 0.00 0.00 91 1016.5
20260507021548 53 194 0.0 0.9 0.00 0.00 0.00 91 1016.5
20260507021456 53 141 0.0 0.9 0.00 0.00 0.00 91 1016.7
20260507020947 53 170 0.0 0.0 0.00 0.00 0.00 91 1016.8
20260507020448 53 186 0.0 0.9 0.00 0.00 0.00 91 1016.7
20260507020057 53 186 0.0 0.9 0.00 0.00 0.00 91 1016.5
20260507015957 53 230 0.0 0.9 0.00 0.00 0.00 91 1016.6
20260507015453 53 240 0.0 0.0 0.00 0.00 0.00 91 1016.5
20260507014947 54 240 0.0 0.9 0.00 0.00 0.00 91 1016.5
20260507014559 54 260 0.0 0.9 0.00 0.00 0.00 91 1016.4
20260507014457 53 259 0.9 0.9 0.00 0.00 0.00 91 1016.5
20260507013947 53 241 0.0 0.9 0.00 0.00 0.00 91 1016.4
20260507013500 53 176 0.0 1.7 0.00 0.00 0.00 91 1016.6
20260507013048 53 146 0.0 1.7 0.00 0.00 0.00 90 1016.3
20260507012958 53 134 0.9 1.7 0.00 0.00 0.00 90 1016.5
20260507012500 54 195 0.0 0.0 0.00 0.00 0.00 91 1016.5
20260507011948 54 207 0.0 0.0 0.00 0.00 0.00 91 1016.5
20260507011556 54 206 0.0 0.9 0.00 0.00 0.00 91 1016.2
20260507011457 54 206 0.0 0.9 0.00 0.00 0.00 91 1016.4
20260507010959 54 210 0.0 0.9 0.00 0.00 0.00 91 1016.4
20260507010447 54 208 0.0 0.9 0.00 0.00 0.00 91 1016.4
20260507010048 54 233 0.0 0.9 0.00 0.00 0.00 91 1016.3
20260507010008 54 234 0.0 0.9 0.00 0.00 0.00 91 1016.4
20260507005448 54 203 0.0 2.6 0.00 0.00 0.00 90 1016.4
20260507004949 54 198 0.0 0.9 0.00 0.00 0.00 90 1016.4
20260507004548 54 251 0.0 0.0 0.00 0.00 0.00 90 1016.2
20260507004457 54 251 0.0 0.0 0.00 0.00 0.00 90 1016.3
20260507003948 54 255 0.0 0.0 0.00 0.00 0.00 90 1016.3
20260507003448 54 134 0.0 0.9 0.00 0.00 0.00 90 1016.2
20260507003048 54 215 0.0 0.9 0.00 0.00 0.00 90 1016.0
20260507002957 54 214 0.0 0.9 0.00 0.00 0.00 90 1016.2
20260507002459 55 224 0.0 0.9 0.00 0.00 0.00 90 1016.1
20260507001948 55 226 0.0 1.7 0.00 0.00 0.00 90 1016.2
20260507001605 55 226 0.0 2.6 0.00 0.00 0.00 90 1016.1
20260507001457 55 226 0.0 2.6 0.00 0.00 0.00 90 1016.2
20260507000948 55 203 0.9 2.6 0.00 0.00 0.00 90 1016.2
20260507000450 54 288 0.0 2.6 0.00 0.00 0.00 90 1016.3
20260507000057 55 212 0.0 0.9 0.00 0.00 0.00 89 1016.2
20260506235958 55 204 0.0 0.9 0.00 0.00 0.00 89 1016.4
20260506235448 55 195 0.0 0.9 0.00 0.00 0.00 89 1016.5
20260506234948 55 131 0.0 1.7 0.00 0.00 0.00 89 1016.4
20260506234548 55 179 0.0 1.7 0.00 0.00 0.00 89 1016.3
20260506234457 55 179 0.0 1.7 0.00 0.00 0.00 89 1016.5
20260506233959 55 229 0.0 0.9 0.00 0.00 0.00 89 1016.6
20260506233450 55 233 0.0 0.9 0.00 0.00 0.00 89 1016.6
20260506233048 55 233 0.0 0.9 0.00 0.00 0.00 89 1016.5
20260506232957 55 233 0.0 0.9 0.00 0.00 0.00 89 1016.5
20260506232448 55 181 0.0 1.7 0.00 0.00 0.00 89 1016.6
20260506231948 55 182 0.0 1.7 0.00 0.00 0.00 89 1016.6
20260506231548 55 213 0.0 0.0 0.00 0.00 0.00 89 1016.4
20260506231457 55 213 0.0 0.0 0.00 0.00 0.00 89 1016.5
20260506230948 55 212 0.0 0.9 0.00 0.00 0.00 89 1016.5
20260506230449 54 211 0.0 0.9 0.00 0.00 0.00 89 1016.4
20260506230051 54 204 0.0 0.9 0.00 0.00 0.00 88 1016.4
20260506225958 54 204 0.0 0.9 0.00 0.00 0.00 88 1016.5
20260506225449 55 138 0.0 0.9 0.00 0.00 0.00 88 1016.6
20260506224948 55 191 0.0 0.0 0.00 0.00 0.00 88 1016.5
20260506224549 55 207 0.0 0.9 0.00 0.00 0.00 88 1016.4
20260506224458 55 207 0.0 0.9 0.00 0.00 0.00 88 1016.4
20260506223948 55 207 0.0 0.9 0.00 0.00 0.00 88 1016.5
20260506223448 55 269 0.0 0.9 0.00 0.00 0.00 87 1016.5
20260506223048 55 144 0.0 0.9 0.00 0.00 0.00 87 1016.4
20260506223010 55 159 0.0 0.9 0.00 0.00 0.00 87 1016.5
20260506222448 55 164 0.0 0.9 0.00 0.00 0.00 87 1016.6
20260506222000 55 223 0.0 1.7 0.00 0.00 0.00 87 1016.6
20260506221548 55 200 0.0 1.7 0.00 0.00 0.00 87 1016.5
20260506221458 55 221 0.0 1.7 0.00 0.00 0.00 87 1016.5
20260506220950 55 222 0.9 2.6 0.00 0.00 0.00 86 1016.6
20260506220450 55 167 0.9 2.6 0.00 0.00 0.00 86 1016.6
20260506220058 56 198 0.0 1.7 0.00 0.00 0.00 85 1016.5
20260506215958 56 240 0.0 1.7 0.00 0.00 0.00 85 1016.6
20260506215450 56 226 0.9 1.7 0.00 0.00 0.00 85 1016.7
20260506214949 56 161 0.0 1.7 0.00 0.00 0.00 85 1016.7
20260506214549 56 276 0.0 1.7 0.00 0.00 0.00 84 1016.6
20260506214458 56 207 0.0 1.7 0.00 0.00 0.00 84 1016.7
20260506213950 56 221 0.9 1.7 0.00 0.00 0.00 83 1016.7
20260506213449 56 136 0.9 1.7 0.00 0.00 0.00 83 1016.7
20260506213052 56 216 0.0 1.7 0.00 0.00 0.00 83 1016.5
20260506212958 56 216 0.0 1.7 0.00 0.00 0.00 83 1016.7
20260506212449 56 219 0.0 1.7 0.00 0.00 0.00 83 1016.8
20260506211950 57 198 0.0 1.7 0.00 0.00 0.00 83 1016.8
20260506211550 57 148 0.9 1.7 0.00 0.00 0.00 83 1016.5
20260506211458 57 158 0.9 1.7 0.00 0.00 0.00 83 1016.7
20260506210949 57 169 0.0 3.5 0.00 0.00 0.00 83 1016.7
20260506210451 57 240 0.9 3.5 0.00 0.00 0.00 82 1016.8
20260506210059 57 216 0.0 0.9 0.00 0.00 0.00 83 1016.8
20260506205958 57 216 0.0 0.9 0.00 0.00 0.00 83 1016.9
20260506205450 57 265 0.0 0.9 0.00 0.00 0.00 83 1016.7
20260506205000 57 225 0.0 1.7 0.00 0.00 0.00 82 1016.7
20260506204552 58 155 0.0 1.7 0.00 0.00 0.00 82 1016.5
20260506204459 58 179 0.9 1.7 0.00 0.00 0.00 83 1016.7
20260506203950 58 248 0.9 1.7 0.00 0.00 0.00 83 1016.5
20260506203449 57 143 0.0 1.7 0.00 0.00 0.00 83 1016.5
20260506203138 58 239 0.0 2.6 0.00 0.00 0.00 83 1016.4
20260506202958 58 153 0.0 2.6 0.00 0.00 0.00 83 1016.5
20260506202449 58 266 0.9 1.7 0.00 0.00 0.00 83 1016.5
20260506201949 58 136 0.0 1.7 0.00 0.00 0.00 84 1016.6
20260506201549 58 165 0.0 1.7 0.00 0.00 0.00 84 1016.4
20260506201459 58 134 0.0 1.7 0.00 0.00 0.00 84 1016.5
20260506201001 58 144 0.0 1.7 0.00 0.00 0.00 84 1016.5
20260506200449 58 213 0.0 1.7 0.00 0.00 0.00 84 1016.5
20260506200051 59 254 0.0 1.7 0.00 0.00 0.00 84 1016.2
20260506200000 59 254 0.0 1.7 0.00 0.00 0.00 84 1016.4
20260506195500 59 255 0.0 0.9 0.00 0.00 0.00 84 1016.3
20260506194949 59 219 0.0 1.7 0.00 0.00 0.00 84 1016.2
20260506194550 59 205 0.0 2.6 0.00 0.00 0.00 85 1016.0
20260506194459 59 136 0.0 3.5 0.00 0.00 0.00 85 1016.1
20260506193951 59 220 0.9 3.5 0.00 0.00 0.00 85 1016.2
20260506193450 59 187 0.9 2.6 0.00 0.00 0.00 84 1016.1
20260506193049 59 194 0.0 1.7 0.00 0.00 0.00 85 1016.0
20260506193010 59 229 0.9 1.7 0.00 0.00 0.00 85 1016.2
20260506192451 59 224 0.0 2.6 0.00 0.00 0.00 85 1016.1
20260506191949 59 205 0.9 1.7 0.00 0.00 0.00 85 1016.1
20260506191553 60 141 0.0 2.6 0.00 0.00 0.00 85 1015.9
20260506191459 60 226 0.9 2.6 0.00 0.00 0.00 85 1016.1
20260506190949 60 220 0.9 2.6 0.00 0.00 0.00 85 1016.0
20260506190451 60 212 0.0 2.6 0.00 0.00 0.00 85 1016.2
20260506190054 60 195 0.0 1.7 0.00 0.00 0.00 85 1015.8
20260506185959 60 207 0.0 2.6 0.00 0.00 0.00 85 1016.0
20260506185451 60 227 0.9 2.6 0.00 0.00 0.00 85 1016.0
20260506184950 60 219 0.9 2.6 0.00 0.00 0.00 84 1015.9
20260506184557 60 135 0.0 2.6 0.00 0.00 0.00 84 1015.7
20260506184459 60 217 0.9 2.6 0.00 0.00 0.00 84 1015.8
20260506183950 60 222 0.9 3.5 0.00 0.00 0.00 84 1015.9
20260506183450 60 249 0.9 3.5 0.00 0.00 0.00 84 1015.7